FENGYUN 1C DEB, 31177

Orbit data source: Space-Track

FENGYUN 1C DEB, 31177 is space debris in SSO originally from a launch on Mon, 10 May 1999 UTC launched from the Taiyaun Space Center, China (TSC). Fengyun 1C debris stems from the Chinese weather satellite Fengyun-1C, which was intentionally destroyed by a Chinese anti-satellite missile in 2007. This event dramatically increased the amount of space debris, with thousands of trackable fragments posing hazards to satellites and human spaceflight. The Fengyun 1C debris cloud has become a focal point in discussions about space sustainability and the need for international regulations to prevent the creation of new debris.

Loading next visibility...
Identifier
31177, 1999-025BJF
Orbit
SSO
Country
Flag of CNCN / PRC
Related business
Manufacturer
Unknown
Mission
Spacecraft
Bus & Motor
Unknown
Mass
Unknown
Launch date (UTC)
1999-05-10 (27 years ago)
Launch vehicle
Unknown
Launch site
Taiyaun Space Center, China (TSC)
Object type
Payload
Rocket body
Debris
Shape & HBR
Unknown shape, 0.1 m
Radar Cross Section
Small (<0.1 m²)

Expand to show TLE details & history
Last TLE update: 2 weeks ago

TLE from 2 weeks ago
0 FENGYUN 1C DEB
1 31177U 99025BJF 26025.74487557  .00003506  00000-0  33644-2 0  9992
2 31177  98.7513 299.8071 0299431 198.4523 189.3566 13.62692395668116
Epoch: 2026-01-25T17:52Z
TLE epoch observation values (Epoch: 2026-01-25T17:52:37.249Z)
Latitude
26.96291°
Longitude
-97.86761°
Altitude
1,248.107 km
Speed
7.126 km/s
True Right ascension
19h 41m 21s
True Declination
26° 49' 59"
Sunlit
Object was in daylight at epoch
Visualization orbit readout
Latitude
Unknown
Longitude
Unknown
Altitude
Unknown
Speed
Unknown
Apparent Right ascension
Unknown
Apparent Declination
Unknown
Sunlit
N/A
Visualization observer readout
Local Sidereal Time
05:32:46
Azimuth
Unknown
Elevation
Unknown
Doppler factor
Unknown
Orbital elements
Apogee altitude
1,244.775 km
Perigee altitude
801.54 km
Semi-major axis
7,401.294 km
Eccentricity
0.02994
Inclination
98.7513°
RAAN
299.8071°
Arg. of periapsis
198.4523°
True anomaly
188.81866°
Mean anomaly
189.3566°
Eccentric anomaly
189.08569°
Mean motion
3.40864 °/min
Orbital period
105.61 mins
BSTAR
0.0033644
Loading maneuver chart data...
Computing Atmospheric mass density...

Documentation

Showing up to 5 results
|